Weather History for Canberra, CT

Change the Weather History Date:

Tuesday, September 3, 2013

  Actual Average Record
Temperature  
Mean Temperature 56 °F -  
Max Temperature 75 °F 62 °F - ()
Min Temperature 37 °F 38 °F - ()
Degree Days  
Heating Degree Days 9    
Growing Degree Days 6 (Base 50)    
Moisture  
Dew Point 44 °F    
Average Humidity 74    
Maximum Humidity 100    
Minimum Humidity 25    
Precipitation  
Precipitation 0.00 in 0.07 in - ()
Sea Level Pressure  
Sea Level Pressure 30.49 in    
Wind  
Wind Speed 2 mph ()    
Max Wind Speed 7 mph    
Max Gust Speed -    
Visibility 5.7 miles    
Events Fog    
T = Trace of Precipitation, MM = Missing Value Source: Averaged Metar Reports

Daily Weather History Graph

Daily Weather History Graph

Search for Another Location

Airport:

Trip Planner

Search our weather history database for the weather conditions in past years. The results will help you decide how hot, cold, wet, or windy it might be!

Date:

Astronomy

Sep. 03, 2013 Rise Set
Actual Time 6:20 AM AEST 5:45 PM AEST
Civil Twilight 5:54 AM AEST 6:10 PM AEST
Nautical Twilight 5:25 AM AEST 6:40 PM AEST
Astronomical Twilight 4:56 AM AEST 7:09 PM AEST
Moon 4:34 AM AEST (9/3) 3:42 PM AEST (9/3)
Length of Visible Light 12h 16m
Length of Day
11h 25m
Waning Crescent, 6% of the Moon is Illuminated
Sep 3
Waning Crescent
Sep 5
New
Sep 13
First Quarter
Sep 19
Full
Sep 27
Last Quarter

Hourly Weather History & Observations

Time (AEST) Temp. Windchill Dew Point Humidity Pressure Visibility Wind Dir Wind Speed Gust Speed Precip Events Conditions
12:00 AM 44 °F - 42 °F 91% 30.53 in - Calm Calm - -  
12:00 AM 44.6 °F - 42.8 °F 93% 30.51 in 6.2 mi Calm Calm - N/A   Unknown
12:30 AM 42.8 °F 41.1 °F 41.0 °F 93% 30.51 in 6.2 mi ESE 3.5 mph - N/A   Unknown
1:00 AM 43 °F - 42 °F 93% 30.52 in - WSW 1.2 mph - -  
1:00 AM 42.8 °F - 41.0 °F 93% 30.48 in 6.2 mi WSW 1.2 mph - N/A   Unknown
1:30 AM 42.8 °F - 41.0 °F 93% 30.48 in 6.2 mi Calm Calm - N/A   Unknown
2:00 AM 42.8 °F - 41.0 °F 93% 30.48 in 6.2 mi North - - N/A   Unknown
2:30 AM 42.8 °F 41.1 °F 41.0 °F 93% 30.48 in 6.2 mi North 3.5 mph - N/A   Unknown
3:00 AM 40 °F - 40 °F 98% 30.50 in - North 1.2 mph - -  
3:00 AM 41.0 °F - 39.2 °F 93% 30.48 in 6.2 mi North 1.2 mph - N/A   Unknown
3:11 AM 41.0 °F - 41.0 °F 100% 30.48 in 1.7 mi Calm Calm - N/A   Unknown
3:15 AM 41.0 °F - 41.0 °F 100% 30.48 in 0.6 mi Calm Calm - N/A   Unknown
3:23 AM 41.0 °F - 39.2 °F 93% 30.48 in 0.6 mi Calm Calm - N/A   Unknown
3:30 AM 41.0 °F - 41.0 °F 100% 30.48 in 6.2 mi Calm Calm - N/A   Unknown
3:38 AM 41.0 °F - 41.0 °F 100% 30.48 in 6.2 mi Calm Calm - N/A   Unknown
4:00 AM 40 °F - 40 °F 98% 30.49 in - East 1.2 mph - -  
4:00 AM 41.0 °F - 39.2 °F 93% 30.48 in 6.2 mi East 1.2 mph - N/A   Unknown
4:30 AM 39.2 °F - 39.2 °F 100% 30.48 in 6.2 mi Calm Calm - N/A Fog Patches of Fog
4:38 AM 39.2 °F - 39.2 °F 100% 30.48 in 6.2 mi Calm Calm - N/A Fog Patches of Fog
5:15 AM 37.4 °F - 37.4 °F 100% 30.48 in 6.2 mi Calm Calm - N/A   Partly Cloudy
5:30 AM 37.4 °F - 37.4 °F 100% 30.48 in 5.0 mi Calm Calm - N/A Fog Patches of Fog
5:45 AM 39.2 °F - 39.2 °F 100% 30.48 in 6.2 mi Calm Calm - N/A Fog Shallow Fog
6:00 AM 39.2 °F - 39.2 °F 100% 30.48 in 6.2 mi Calm Calm - N/A Fog Patches of Fog
6:30 AM 37.4 °F 34.9 °F 37.4 °F 100% 30.51 in 6.2 mi NNW 3.5 mph - N/A Fog Shallow Fog
7:00 AM 39.2 °F - 37.4 °F 93% 30.51 in 6.2 mi Calm Calm - N/A Fog Shallow Fog
7:30 AM 42.8 °F - 41.0 °F 93% 30.51 in 6.2 mi Calm Calm - N/A Fog Shallow Fog
7:53 AM 44.6 °F 43.1 °F 44.6 °F 100% 30.54 in 6.2 mi North 3.5 mph - N/A   Partly Cloudy
8:00 AM 46.4 °F - 44.6 °F 93% 30.54 in - North 1.2 mph - N/A   Clear
8:30 AM 51.8 °F - 44.6 °F 76% 30.54 in - ESE 5.8 mph - N/A   Clear
9:00 AM 54 °F - 45 °F 62% 30.56 in - SE 2.3 mph - -  
9:00 AM 53.6 °F - 44.6 °F 72% 30.54 in - SE 2.3 mph - N/A   Clear
9:30 AM 57.2 °F - 46.4 °F 67% 30.54 in - WSW 2.3 mph - N/A   Clear
10:00 AM 61 °F - 48 °F 51% 30.55 in - WSW 2.3 mph - -  
10:00 AM 60.8 °F - 48.2 °F 63% 30.54 in - WSW 2.3 mph - N/A   Clear
10:30 AM 62.6 °F - 46.4 °F 55% 30.51 in - WSW 3.5 mph - N/A   Clear
11:00 AM 66.2 °F - 46.4 °F 49% 30.51 in - WSW 4.6 mph - N/A   Clear
11:30 AM 68.0 °F - 44.6 °F 43% 30.51 in - North 4.6 mph - N/A   Clear
12:00 PM 69.8 °F - 44.6 °F 40% 30.48 in - NNW 6.9 mph - N/A   Clear
12:30 PM 71.6 °F - 44.6 °F 38% 30.48 in 6.2 mi NNW 5.8 mph - N/A   Partly Cloudy
1:00 PM 73 °F - 45 °F 25% 30.48 in - North 5.8 mph - -  
1:00 PM 73.4 °F - 44.6 °F 36% 30.45 in 6.2 mi North 5.8 mph - N/A   Partly Cloudy
1:30 PM 73.4 °F - 41.0 °F 31% 30.45 in 6.2 mi West 3.5 mph - N/A   Partly Cloudy
2:00 PM 73.4 °F - 39.2 °F 29% 30.45 in - WNW 6.9 mph - N/A   Clear
2:30 PM 75.2 °F - 41.0 °F 29% 30.42 in - North 5.8 mph - N/A   Clear
3:00 PM 73.4 °F - 41.0 °F 31% 30.42 in - North 5.8 mph - N/A   Clear
3:30 PM 73.4 °F - 39.2 °F 29% 30.42 in - NW 2.3 mph - N/A   Clear
4:00 PM 73.4 °F - 39.2 °F 29% 30.42 in - NNE 1.2 mph - N/A   Clear
4:30 PM 73.4 °F - 41.0 °F 31% 30.42 in 6.2 mi WSW 3.5 mph - N/A   Partly Cloudy
5:00 PM 71.6 °F - 42.8 °F 35% 30.42 in 6.2 mi North 4.6 mph - N/A   Partly Cloudy
5:30 PM 68.0 °F - 42.8 °F 40% 30.42 in 6.2 mi North 6.9 mph - N/A   Partly Cloudy
6:00 PM 61 °F - 42 °F 37% 30.46 in - NE 5.8 mph - -  
6:00 PM 60.8 °F - 41.0 °F 48% 30.45 in 6.2 mi NE 5.8 mph - N/A   Partly Cloudy
6:30 PM 59.0 °F - 42.8 °F 55% 30.45 in 6.2 mi North 5.8 mph - N/A   Partly Cloudy
7:00 PM 61 °F - 52 °F 64% 30.48 in - East 2.3 mph - -  
7:00 PM 60.8 °F - 51.8 °F 72% 30.45 in - East 2.3 mph - N/A   Clear
7:30 PM 59.0 °F - 48.2 °F 67% 30.48 in - WSW 5.8 mph - N/A   Clear
8:00 PM 59.0 °F - 51.8 °F 77% 30.48 in - ESE 5.8 mph - N/A   Clear
8:30 PM 59.0 °F - 53.6 °F 82% 30.48 in - ENE 2.3 mph - N/A   Clear
9:00 PM 57 °F - 52 °F 78% 30.52 in - SSW 2.3 mph - -  
9:00 PM 57.2 °F - 51.8 °F 82% 30.48 in 6.2 mi SSW 2.3 mph - N/A   Unknown
9:30 PM 55.4 °F - 51.8 °F 88% 30.51 in 6.2 mi ESE 5.8 mph - N/A   Unknown
10:00 PM 54 °F - 51 °F 84% 30.53 in - SE 6.9 mph - -  
10:00 PM 53.6 °F - 50.0 °F 88% 30.51 in 6.2 mi SE 6.9 mph - N/A   Unknown
10:30 PM 51.8 °F - 50.0 °F 94% 30.51 in 6.2 mi SE 6.9 mph - N/A   Unknown
11:00 PM 50.0 °F - 46.4 °F 87% 30.51 in 6.2 mi ESE 1.2 mph - N/A   Unknown
11:30 PM 50.0 °F - 48.2 °F 94% 30.51 in 6.2 mi ESE 6.9 mph - N/A   Unknown